Wilmington, OH

1:18 AM EDT on April 27, 2017 (GMT -0400)
Truesdell St | | Change Station

Elev 1023 ft 39.44 °N, 83.83 °W | Updated 16 seconds ago

Clear
Clear
64.6 °F
Feels Like 64.6 °F
N
1.0
Wind Variable Wind from ESE

Today
High -- | Low -- °F
--% Chance of Precip.
Yesterday
High -- | Low -- °F
Precip. -- in
Pressure 29.58 in
Visibility 10.0 miles
Clouds Clear
Dew Point 51 °F
Humidity 63%
Rainfall 0.00 in
Snow Depth Not available.
6:41 AM 8:25 PM
New Moon, 1% visible
METAR KILN 270454Z AUTO 17007KT 10SM CLR 19/12 A2960 RMK AO2 SLP016 T01890117 402670122
Pressure 29.58 in
Visibility 10.0 miles
Clouds Clear
Dew Point 51 °F
Humidity 63%
Rainfall 0.00 in
Snow Depth Not available.
6:41 AM 8:25 PM
New Moon, 1% visible
METAR KILN 270454Z AUTO 17007KT 10SM CLR 19/12 A2960 RMK AO2 SLP016 T01890117 402670122

Get Severe Weather Alerts

Thanks for signing up!

Be on the lookout for a verification email in your inbox.

You'll start receiving the daily forecast at 8 AM.

×

10-Day Weather Forecast

Almanac

Astronomy

Apr. 27, 2017 Rise Set
Actual Time
Civil Twilight
Nautical Twilight
Astronomical Twilight
Moon
Length of Visible Light
Length of Day
Tomorrow will be .
, % of the Moon is Illuminated

Today's Extremes

State Highs State Lows

Community

WunderPhotos

WunderBlog® & News

Nearby

Air Quality

  Air Quality AQ Index Pollutant
Not available.

Snow Depth

Station Depth Elevation

Earthquake Activity

City Distance Mag. Time & Date
Minimum magnitude displayed is 2.5.

Coastal Water Temperatures

Place Temperature

Stations

Nearby Weather Stations

Station Location Temp. Windchill Dew Point Humidity Wind Precip. Elev Updated Type
                   

Watches & Warnings

There are currently no watches in effect.